[[{"header":{"parameterUnit":"m.s-1","parameterCategory":1,"la1":30.2991,"la2":30.254,"lo1":-89.0895,"lo2":-89.0444,"dy":0.0017,"dx":0.0017,"nx":28,"ny":28,"refTime":"2025-06-03T21:00:00:Z","depth":0,"parameterNumber":2,"parameterNumberName":"U-component_of_WINDS"},"data":[0,0,0,0,0,0,0,0,0,0,0,0,0,0,0,0,0,0,0,0,0,0,0,0,0,0,0,0,0,0,0,0,0,0,0,0,0,0,0,0,0,0,0,0,0,0,0,0,0,0,0,0,0,0,0,0,0,0,-0.7948,-0.7948,0,-0.7949,-0.7949,-0.7949,-0.7915,-0.7914,-0.7913,-0.7912,-0.7915,-0.7916,-0.7917,0,0,0,0,0,0,0,0,0,0,0,0,0,-0.7918,-0.7919,-0.7948,-0.7948,-0.7948,-0.7949,-0.7949,-0.7949,-0.7915,-0.7914,-0.7913,-0.7912,-0.7915,-0.7916,-0.7917,0,0,0,0,0,0,0,0,0,0,0,0,0,-0.7926,-0.7919,-0.7948,-0.7931,-0.793,-0.7949,-0.7949,-0.7949,-0.7915,-0.7914,-0.7912,-0.7911,-0.7914,-0.7916,-0.7917,-0.7954,0,0,-0.7921,-0.7922,0,0,0,0,0,0,0,0,-0.7926,-0.7928,-0.7934,-0.7932,-0.7931,-0.793,-0.794,-0.7951,-0.7916,-0.7921,-0.7912,-0.791,-0.7921,-0.7922,-0.7925,-0.7954,-0.7954,-0.7922,-0.7922,-0.7923,-0.7923,0,0,0,0,0,0,0,-0.7925,-0.7927,-0.7949,-0.7934,-0.7932,-0.7924,-0.7924,-0.7942,-0.7929,-0.792,-0.7918,-0.7918,-0.792,-0.7924,-0.7925,-0.7954,-0.7922,-0.7923,-0.7924,-0.7924,-0.8013,-0.8014,0,0,0,0,0,0,-0.7927,-0.7927,-0.7949,-0.7949,-0.7925,-0.7926,-0.7925,-0.7932,-0.7929,-0.7927,-0.7919,-0.7917,-0.7922,-0.7924,-0.7925,-0.7968,-0.7923,-0.7924,-0.7925,-0.8011,-0.8013,-0.8015,0,0,0,0,0,0,-0.7926,-0.7929,-0.7948,-0.7937,-0.7939,-0.7928,-0.7935,-0.7933,-0.7936,-0.7928,-0.7926,-0.7925,-0.7921,-0.7923,-0.7947,-0.7968,-0.7925,-0.7926,-0.8009,-0.8012,-0.8014,-0.8054,0,0,0,0,0,0,-0.7926,-0.7929,-0.7943,-0.7938,-0.794,-0.797,-0.7937,-0.7934,-0.7939,-0.7935,-0.7933,-0.7931,-0.792,-0.7945,-0.7948,-0.7969,-0.7927,-0.8008,-0.8011,-0.8013,-0.8051,-0.8057,-0.8063,0,0,0,0,0,-0.7925,-0.7954,-0.7943,-0.7946,-0.7956,-0.7971,-0.7972,-0.7958,-0.7941,-0.7954,-0.7949,-0.7932,-0.7965,-0.7948,-0.7951,-0.7973,-0.8006,-0.801,-0.8013,-0.8048,-0.8056,-0.8063,0,0,0,0,0,0,-0.7963,-0.7953,-0.7941,-0.797,-0.7971,-0.7965,-0.7982,-0.7967,-0.7974,-0.7971,-0.7954,-0.7954,-0.798,-0.7978,-0.796,-0.8008,-0.7982,-0.7987,-0.8008,-0.8016,-0.8022,-0.8022,-0.7929,0,0,0,0,0,-0.7974,-0.7986,-0.7978,-0.8004,-0.8005,-0.7993,-0.7999,-0.7989,-0.799,-0.799,-0.7987,-0.7989,-0.8,-0.8007,-0.8017,-0.805,-0.805,-0.8067,-0.8073,-0.8078,-0.8082,-0.81,-0.8107,-0.8026,-0.8026,-0.8026,0,0,-0.7998,-0.7995,-0.8004,-0.8011,-0.8011,-0.8025,-0.7994,-0.801,-0.802,-0.7993,-0.8015,-0.8012,-0.8014,-0.8042,-0.8055,-0.8042,-0.8104,-0.8082,-0.8086,-0.8088,-0.8104,-0.8112,-0.8119,-0.8028,-0.8028,-0.8027,0,0,-0.805,-0.8048,-0.807,-0.807,-0.807,-0.8062,-0.8067,-0.8063,-0.806,-0.8082,-0.8062,-0.8074,-0.8093,-0.8095,-0.8098,-0.815,-0.8135,-0.8154,-0.8186,-0.8203,-0.821,-0.8215,-0.8235,-0.8242,-0.8158,-0.8158,-0.8158,0,-0.808,-0.8099,-0.8083,-0.81,-0.8104,-0.8079,-0.8101,-0.8103,-0.8106,-0.811,-0.8095,-0.8119,-0.8118,-0.8147,-0.816,-0.8163,-0.8169,-0.8154,-0.821,-0.8216,-0.8221,-0.8239,-0.8246,-0.816,-0.816,-0.8159,-0.8159,0,-0.8137,-0.8151,-0.8168,-0.8171,-0.8177,-0.8197,-0.8184,-0.8192,-0.8181,-0.8175,-0.8197,-0.8195,-0.8204,-0.821,-0.8199,-0.8238,-0.823,-0.8213,-0.8187,-0.8231,-0.8248,-0.8254,-0.8163,-0.8163,-0.8162,-0.8161,0,0,-0.8213,-0.8206,-0.8213,-0.8214,-0.8212,-0.8223,-0.8241,-0.8249,-0.8257,-0.826,-0.8276,-0.8293,-0.8277,-0.8281,-0.827,-0.8285,-0.8327,-0.8266,-0.8266,-0.8278,-0.837,-0.8383,-0.8391,-0.8317,-0.8318,-0.8319,-0.837,0,-0.8263,-0.8294,-0.8279,-0.8312,-0.8325,-0.8301,-0.8318,-0.8319,-0.8313,-0.8324,-0.8318,-0.833,-0.8308,-0.831,-0.8324,-0.8319,-0.8345,-0.8315,-0.8332,-0.8333,-0.8333,-0.84,-0.8414,-0.8462,-0.8376,-0.8377,-0.8378,0,-0.8326,-0.8331,-0.8365,-0.836,-0.8365,-0.838,-0.8386,-0.8396,-0.8397,-0.8392,-0.8396,-0.8382,-0.8401,-0.8374,-0.84,-0.838,-0.8386,-0.8384,-0.8386,-0.8387,-0.8359,-0.8404,-0.8477,-0.8485,-0.8388,-0.8387,-0.8387,0,-0.8379,-0.8394,-0.8416,-0.8418,-0.8413,-0.8424,-0.8423,-0.8422,-0.8428,-0.8434,-0.8437,-0.8445,-0.845,-0.8457,-0.8445,-0.8427,-0.8473,-0.8445,-0.847,-0.847,-0.8481,-0.8481,-0.8557,-0.8484,-0.8484,-0.8484,-0.8483,0,-0.8437,-0.8459,-0.844,-0.8454,-0.8478,-0.8461,-0.8485,-0.8481,-0.8481,-0.8494,-0.8474,-0.8487,-0.847,-0.8482,-0.8473,-0.8496,-0.8498,-0.8495,-0.8493,-0.8497,-0.8498,-0.8502,-0.8498,-0.8485,-0.8485,-0.8485,-0.8484,0,-0.85,-0.8488,-0.8511,-0.8504,-0.8503,-0.8521,-0.8516,-0.8529,-0.8522,-0.8539,-0.8542,-0.8531,-0.8543,-0.8532,-0.8544,-0.8538,-0.8569,-0.8561,-0.8569,-0.8567,-0.8592,-0.859,-0.8674,-0.8685,-0.8604,-0.8605,-0.8605,0,-0.8538,-0.8554,-0.8549,-0.8556,-0.8556,-0.8568,-0.8573,-0.8557,-0.8564,-0.8566,-0.8579,-0.8589,-0.8597,-0.8618,-0.8612,-0.8621,-0.8614,-0.8643,-0.8615,-0.862,-0.8615,-0.8615,-0.8617,-0.8649,-0.865,-0.8651,-0.8651,0,-0.8608,-0.8601,-0.8609,-0.8616,-0.8623,-0.8627,-0.863,-0.8637,-0.8621,-0.863,-0.8642,-0.8648,-0.866,-0.8671,-0.8678,-0.8677,-0.8662,-0.866,-0.8666,-0.8671,-0.8675,-0.8674,-0.8585,-0.8658,-0.8657,-0.8657,-0.8656,-0.8656,-0.866,-0.8673,-0.8672,-0.8682,-0.8682,-0.8686,-0.8697,-0.8691,-0.8701,-0.8709,-0.8699,-0.8714,-0.8715,-0.8722,-0.8724,-0.8735,-0.8724,-0.8732,-0.8735,-0.8737,-0.8741,-0.8673,-0.8737,-0.8736,-0.8736,-0.8736,-0.8736,0,-0.8729,-0.8727,-0.8736,-0.874,-0.8749,-0.8732,-0.8735,-0.8743,-0.8756,-0.8757,-0.8765,-0.8779,-0.879,-0.8784,-0.8793,-0.8804,-0.8797,-0.8807,-0.8806,-0.8807,-0.8751,-0.8745,-0.8812,-0.8812,-0.8812,-0.8812,-0.8812,-0.8812,-0.8766,-0.8788,-0.8781,-0.8803,-0.88,-0.8814,-0.8817,-0.882,-0.8821,-0.8837,-0.8846,-0.8842,-0.884,-0.8849,-0.8858,-0.8856,-0.8861,-0.8874,-0.8869,-0.8818,-0.881,-0.8803,-0.8798,-0.8874,-0.8875,-0.8924,-0.8924,-0.8924]},{"header":{"parameterUnit":"m.s-1","parameterCategory":1,"la1":30.2991,"la2":30.254,"lo1":-89.0895,"lo2":-89.0444,"dy":0.0017,"dx":0.0017,"nx":28,"ny":28,"refTime":"2025-06-03T21:00:00:Z","depth":0,"parameterNumber":3,"parameterNumberName":"V-component_of_WINDS"},"data":[0,0,0,0,0,0,0,0,0,0,0,0,0,0,0,0,0,0,0,0,0,0,0,0,0,0,0,0,0,0,0,0,0,0,0,0,0,0,0,0,0,0,0,0,0,0,0,0,0,0,0,0,0,0,0,0,0,0,2.2816,2.2816,0,2.2837,2.2837,2.2837,2.2805,2.2804,2.2803,2.2802,2.2823,2.2824,2.2826,0,0,0,0,0,0,0,0,0,0,0,0,0,2.2746,2.2748,2.2816,2.2816,2.2816,2.2837,2.2837,2.2837,2.2806,2.2804,2.2803,2.2802,2.2822,2.2824,2.2826,0,0,0,0,0,0,0,0,0,0,0,0,0,2.2773,2.2748,2.2816,2.2803,2.2802,2.2837,2.2837,2.2837,2.2806,2.2804,2.2803,2.2801,2.2822,2.2824,2.2826,2.2874,0,0,2.2833,2.2834,0,0,0,0,0,0,0,0,2.2771,2.2775,2.2805,2.2804,2.2803,2.2817,2.282,2.285,2.2806,2.2804,2.2802,2.28,2.2822,2.2824,2.2832,2.2875,2.2876,2.2834,2.2835,2.2836,2.2837,0,0,0,0,0,0,0,2.277,2.2774,2.2824,2.2805,2.2804,2.2796,2.2798,2.2825,2.2822,2.2804,2.2802,2.2805,2.2821,2.283,2.2832,2.2876,2.2833,2.2836,2.2837,2.2838,2.2958,2.2959,0,0,0,0,0,0,2.277,2.2773,2.2823,2.2825,2.2783,2.2798,2.28,2.2814,2.2822,2.2821,2.2807,2.2804,2.2826,2.2829,2.2833,2.2888,2.2836,2.2838,2.284,2.2956,2.2958,2.296,0,0,0,0,0,0,2.2768,2.2774,2.2822,2.2798,2.2804,2.2801,2.2817,2.2815,2.2824,2.2823,2.2823,2.2816,2.2825,2.2829,2.2864,2.2888,2.2839,2.2841,2.2954,2.2957,2.2959,2.2999,0,0,0,0,0,0,2.2766,2.2774,2.2793,2.2799,2.2805,2.2854,2.2818,2.2817,2.2828,2.2824,2.2832,2.2831,2.2824,2.286,2.2866,2.289,2.2843,2.2952,2.2955,2.2958,2.2996,2.3003,2.3009,0,0,0,0,0,2.2764,2.2803,2.2794,2.28,2.2828,2.2855,2.2859,2.285,2.283,2.2848,2.2848,2.2831,2.2885,2.2864,2.287,2.2896,2.295,2.2954,2.2958,2.2993,2.3001,2.3009,0,0,0,0,0,0,2.28,2.2804,2.2793,2.2836,2.2846,2.285,2.2873,2.286,2.2875,2.2871,2.2859,2.2861,2.2897,2.29,2.2877,2.2941,2.2914,2.2919,2.2938,2.2947,2.2953,2.2951,2.2845,0,0,0,0,0,2.2813,2.2835,2.2837,2.2874,2.288,2.2875,2.2887,2.2879,2.2888,2.2892,2.2894,2.2903,2.2922,2.2935,2.2952,2.2996,2.2997,2.3017,2.3023,2.3029,2.3033,2.3055,2.3064,2.2973,2.2973,2.2973,0,0,2.284,2.2844,2.2859,2.2882,2.2888,2.291,2.2879,2.2904,2.292,2.2896,2.2928,2.293,2.2939,2.2978,2.2996,2.2982,2.3059,2.3034,2.3038,2.304,2.306,2.3069,2.3077,2.2976,2.2975,2.2975,0,0,2.2899,2.2906,2.2937,2.2944,2.2954,2.2951,2.2958,2.2965,2.2965,2.2997,2.2979,2.2998,2.3031,2.3038,2.3045,2.3107,2.3092,2.3113,2.3148,2.3169,2.3177,2.3183,2.3203,2.3211,2.3118,2.3118,2.3118,0,2.2931,2.2964,2.2955,2.2981,2.299,2.297,2.3,2.3007,2.3023,2.303,2.3014,2.3054,2.3059,2.3099,2.3114,2.3121,2.3128,2.3112,2.3176,2.3183,2.3188,2.3208,2.3216,2.312,2.312,2.312,2.312,0,2.3002,2.3025,2.3049,2.3064,2.3077,2.3105,2.3099,2.3113,2.3104,2.3102,2.3134,2.314,2.3157,2.3166,2.3158,2.3204,2.3195,2.3178,2.315,2.3199,2.3217,2.3225,2.3124,2.3123,2.3122,2.3122,0,0,2.3085,2.3094,2.3103,2.3108,2.3118,2.3135,2.3162,2.3179,2.3191,2.3202,2.3223,2.3251,2.3235,2.3244,2.3236,2.3256,2.3302,2.3236,2.3236,2.3247,2.3352,2.3364,2.3373,2.3293,2.3294,2.3295,2.3351,0,2.3144,2.319,2.3182,2.3227,2.3247,2.3227,2.325,2.3258,2.3257,2.3274,2.3273,2.3292,2.327,2.3275,2.3294,2.3293,2.3323,2.3289,2.3311,2.3312,2.3308,2.3382,2.3395,2.3447,2.3358,2.3359,2.336,0,2.3218,2.3231,2.3279,2.3283,2.3292,2.3313,2.3327,2.3344,2.3352,2.3349,2.3359,2.3347,2.3373,2.3346,2.338,2.3357,2.3366,2.3367,2.3369,2.3369,2.3338,2.3384,2.3464,2.3471,2.3371,2.337,2.337,0,2.3272,2.3302,2.3333,2.3339,2.3346,2.3361,2.3365,2.3371,2.3382,2.3394,2.34,2.3416,2.3424,2.3436,2.3428,2.3409,2.3464,2.3436,2.3462,2.3462,2.3473,2.3472,2.3554,2.3481,2.3481,2.3481,2.3481,0,2.3337,2.3366,2.3358,2.3377,2.3409,2.3398,2.343,2.3431,2.3437,2.3455,2.3439,2.3457,2.3447,2.3463,2.3458,2.3486,2.3491,2.3489,2.3487,2.3489,2.3489,2.3494,2.349,2.3483,2.3482,2.3482,2.3482,0,2.3403,2.3398,2.3431,2.3434,2.3436,2.3459,2.3462,2.3479,2.3477,2.35,2.3505,2.3502,2.352,2.3514,2.3534,2.353,2.3567,2.3561,2.3564,2.3562,2.3587,2.3585,2.3674,2.3685,2.3606,2.3607,2.3608,0,2.3444,2.3466,2.3472,2.3483,2.3487,2.3506,2.3516,2.3507,2.3518,2.3528,2.3544,2.3562,2.3575,2.3606,2.3604,2.3619,2.3613,2.3643,2.3615,2.3616,2.3611,2.361,2.3611,2.3648,2.3649,2.365,2.3651,0,2.3518,2.3514,2.353,2.3544,2.3557,2.3568,2.3577,2.3588,2.3579,2.3592,2.3611,2.3621,2.3641,2.3658,2.3671,2.3674,2.3661,2.366,2.3666,2.3669,2.3669,2.3668,2.3578,2.3657,2.3657,2.3656,2.3656,2.3655,2.3571,2.3589,2.3596,2.3613,2.3619,2.3628,2.3644,2.3644,2.366,2.3675,2.3669,2.369,2.3696,2.3713,2.3718,2.3734,2.3722,2.3732,2.3734,2.3736,2.3739,2.3667,2.3736,2.3736,2.3736,2.3736,2.3736,0,2.3643,2.3646,2.3662,2.3675,2.3689,2.3675,2.3685,2.3697,2.3716,2.3723,2.3736,2.3757,2.3773,2.3773,2.3788,2.3801,2.3795,2.3805,2.3803,2.3804,2.3749,2.3741,2.3809,2.3809,2.3809,2.3809,2.3809,2.3809,2.3681,2.371,2.3707,2.3739,2.3742,2.3762,2.3769,2.3777,2.3782,2.3806,2.382,2.3819,2.3823,2.3838,2.3852,2.3851,2.3857,2.3869,2.3866,2.3815,2.3808,2.3801,2.3793,2.3871,2.3871,2.3919,2.3919,2.392]}]]